SES-9

Last updated on May 23, 2019, 3:05 a.m. UTC

1 41380U 16013A   19142.89275862 -.00000353  00000-0  00000+0 0  9992
2 41380   0.0172 281.3343 0002277 160.9143 227.6640  1.00269749 11854
UTC
Height (km)
Latitude
Longitude
Inclination
Orbital Period
UTC large
Height (km)
Speed (km/s)
/
Latitude / Longitude
Inclination (degrees)
Orbital Period (minutes)
Azimuth
Elevation
Range (km)
Doppler Factor
iOS Compass Heading
iOS Angle

Next 30 passes for location: Hong Kong

Rise time Rise Azimuth (degrees) Set time Set Azimuth (degrees) Duration Max altitude (degrees)

No matching passes for this satellites